Location: Bailleul
(50.3375°N, 2.8513°E)
Time: 04:37:31
(UTC+00:00)

Cosmos 1980 - Pass Details

Date: 29 October 2021
Orbit: 839 x 847 km, 71.0° (Epoch: 01 December)

Event Time Altitude Azimuth Distance (km) Brightness Sun altitude
Rises 18:49:09 0° 177° (S) 3,378 6.8 -22.7°
Reaches altitude 10° 18:51:47 10° 168° (SSE) 2,449 5.9 -23.2°
Enters shadow 18:51:53 11° 168° (SSE) 2,414 5.9 -23.2°
